Probability
19 13 29 26 29 32 35 42 42 42 42 42 42 45 45 52 55 55 58 65 58 55 55 61 61 61 48 45 48 55 52 58 61 52 48 48 61 61 55 52 52 58 65
6 10 29 35 29 39 39 39 35 39 42 35 45 48 45 52 55 48 48 61 65 55 52 52 45 52 48 48 48 42 42 45 48 45 48 48 52 55 58 55 55 55 55
3 13 19 35 29 29 29 26 35 35 39 39 45 45 42 45 55 45 45 58 55 55 42 45 39 48 48 42 39 29 29 35 35 35 48 23 29 52 61 58 52 58 48
10 10 10 29 26 29 19 23 29 35 39 39 29 35 35 35 45 45 39 45 42 42 39 35 39 45 48 42 42 35 35 29 42 45 19 13 0 42 52 52 45 48 55
13 10 26 35 29 29 29 26 29 32 39 35 29 29 26 29 32 29 42 42 42 39 42 39 42 39 39 35 35 29 29 39 45 16 10 10 3 42 35 45 39 39 42
3 6 26 35 32 26 29 29 39 29 29 32 29 26 29 19 32 29 26 26 35 32 32 35 35 32 32 26 29 32 32 39 29 6 6 6 3 26 32 32 29 29 29
3 10 10 39 29 29 35 32 32 32 39 32 29 19 19 29 29 29 23 29 35 35 32 35 29 26 26 23 19 23 23 23 13 6 10 6 10 23 29 29 29 26 23
6 13 23 42 39 39 35 35 32 35 29 26 29 26 26 29 26 32 23 23 26 32 26 29 23 19 23 16 16 16 10 23 3 3 6 6 19 19 10 16 19 29 23
6 6 13 10 16 35 35 32 26 32 23 19 19 26 26 23 19 23 16 19 23 19 16 19 23 19 16 23 16 16 16 16 3 6 6 6 10 13 10 6 10 23 23
0 0 3 6 10 10 23 32 26 23 19 13 16 26 23 23 19 19 16 16 19 19 16 13 10 19 19 19 16 10 6 6 3 3 6 6 10 10 10 16 16 16 16
0 0 6 13 10 10 10 13 19 19 13 23 19 26 19 13 6 6 10 13 13 16 16 16 10 13 10 10 13 6 6 3 3 3 3 13 10 10 16 16 19 16 13
0 3 3 6 6 6 6 6 10 10 10 10 13 10 10 0 0 0 3 13 13 13 16 10 16 10 3 3 0 3 0 0 0 3 3 10 13 13 13 10 16 16 10
0 0 0 3 6 10 10 10 10 10 10 10 10 10 6 3 0 0 0 0 0 3 3 3 0 0 0 3 3 0 0 0 0 0 0 10 10 10 10 10 10 10 13
0 0 0 0 3 3 3 3 6 6 10 10 10 10 10 6 6 3 3 3 3 3 6 0 0 0 0 0 3 0 3 0 0 0 0 6 6 3 6 10 6 10 6
0 0 0 0 3 3 3 6 3 6 10 10 10 6 6 6 3 3 0 0 0 0 0 0 0 0 0 0 3 3 3 0 0 0 0 0 10 6 3 3 3 3 3
0 0 0 3 3 0 3 3 3 3 10 10 3 6 6 6 0 3 0 0 0 0 0 0 0 0 3 3 0 3 0 0 0 0 0 0 0 0 0 0 0 0 0
0 0 0 0 0 3 3 0 0 0 0 0 6 3 3 3 3 3 3 0 0 0 0 0 0 0 0 3 0 3 0 0 0 0 0 0 0 0 0 0 0 0 0
3 0 0 0 0 0 0 0 0 0 0 0 0 3 3 3 3 3 6 6 3 3 6 6 3 3 3 0 0 0 0 0 0 0 0 0 0 0 0 0 0 0 0
3 3 3 0 0 0 0 0 3 3 3 3 3 3 3 0 3 3 6 6 6 6 6 3 3 3 3 3 3 0 0 0 0 0 0 0 0 0 0 0 3 3 0
0 3 3 3 0 0 0 0 3 0 3 3 3 3 3 3 6 6 6 6 6 6 6 6 3 3 3 3 3 3 0 0 0 0 0 0 0 0 0 0 0 0 3
0 0 3 3 0 0 6 3 3 3 3 3 3 3 3 3 3 6 6 6 6 6 6 6 3 3 3 3 3 3 0 0 0 0 0 0 0 0 0 0 0 0 0
0 0 0 3 0 0 6 6 3 3 3 3 3 3 3 3 3 3 3 3 3 3 3 3 3 3 3 3 3 3 0 0 0 0 0 0 0 0 0 0 0 0 0
0 3 3 3 3 6 10 6 3 3 3 3 3 3 3 3 3 3 3 3 3 3 3 3 3 3 3 3 3 3 0 0 0 0 0 0 0 0 0 0 0 0 0
0 0 3 3 10 10 10 10 6 6 3 6 3 6 3 3 3 3 3 3 3 3 3 3 3 3 3 3 3 3 3 3 0 0 0 0 0 0 0 0 0 0 0
0 0 0 3 3 6 10 10 6 6 6 3 3 3 3 0 0 0 0 0 3 3 3 3 3 3 3 3 3 3 3 3 0 0 0 0 0 0 0 0 0 0 0
0 0 6 3 6 6 3 10 6 3 3 0 0 0 0 0 0 0 0 0 3 3 3 3 3 3 3 3 3 3 3 3 0 0 0 0 0 0 0 0 0 0 0
Height
5868 5868 5868 5869 5869 5869 5870 5870 5870 5871 5871 5871 5871 5871 5871 5871 5871 5871 5870 5870 5869 5870 5871 5872 5873 5874 5874 5875 5875 5876 5876 5876 5876 5877 5877 5878 5878 5879 5880 5880 5881 5882 5882
5868 5868 5868 5868 5869 5869 5870 5870 5870 5870 5871 5871 5871 5871 5871 5871 5871 5871 5870 5870 5869 5870 5871 5872 5873 5873 5874 5875 5875 5875 5875 5876 5876 5876 5877 5877 5878 5878 5879 5879 5880 5881 5881
5867 5867 5868 5868 5869 5869 5869 5870 5870 5870 5870 5870 5870 5870 5870 5871 5871 5870 5870 5870 5870 5871 5871 5872 5872 5873 5873 5874 5874 5874 5874 5875 5875 5875 5876 5876 5877 5877 5877 5878 5879 5879 5880
5867 5867 5867 5868 5868 5869 5869 5869 5870 5870 5870 5870 5870 5870 5870 5870 5870 5870 5870 5870 5870 5871 5871 5871 5872 5872 5873 5873 5873 5873 5873 5874 5874 5874 5874 5875 5875 5875 5876 5876 5877 5878 5878
5866 5866 5867 5867 5867 5868 5868 5869 5869 5869 5870 5870 5870 5869 5870 5870 5870 5870 5870 5870 5870 5870 5870 5871 5871 5871 5872 5872 5872 5872 5872 5872 5872 5872 5872 5873 5873 5874 5874 5875 5876 5876 5877
5865 5866 5866 5867 5867 5867 5868 5868 5869 5869 5869 5869 5869 5869 5869 5869 5869 5869 5869 5869 5870 5870 5870 5870 5870 5871 5871 5871 5871 5871 5871 5871 5871 5871 5871 5871 5872 5872 5873 5873 5874 5874 5875
5864 5865 5866 5866 5866 5867 5867 5868 5868 5868 5869 5869 5869 5869 5869 5869 5869 5869 5869 5869 5869 5869 5869 5869 5869 5869 5869 5869 5870 5870 5870 5870 5870 5870 5869 5870 5870 5870 5871 5871 5872 5872 5873
5864 5864 5865 5865 5866 5866 5867 5867 5867 5868 5868 5868 5868 5868 5868 5868 5868 5868 5868 5868 5868 5869 5868 5868 5869 5868 5868 5868 5868 5868 5868 5868 5868 5868 5868 5868 5868 5868 5869 5869 5869 5870 5871
5863 5863 5864 5864 5865 5866 5866 5866 5867 5867 5867 5867 5867 5867 5867 5867 5867 5868 5867 5867 5868 5868 5868 5868 5867 5867 5867 5867 5867 5867 5867 5866 5866 5866 5866 5866 5866 5866 5866 5867 5867 5868 5868
5862 5862 5863 5864 5864 5865 5865 5865 5866 5866 5866 5866 5866 5866 5866 5866 5867 5867 5867 5867 5867 5867 5867 5867 5866 5866 5866 5866 5865 5865 5865 5865 5864 5864 5864 5864 5864 5864 5864 5864 5865 5865 5865
5861 5861 5862 5863 5863 5864 5864 5864 5865 5865 5865 5865 5865 5865 5865 5866 5866 5866 5866 5866 5866 5866 5866 5865 5865 5865 5865 5865 5864 5864 5863 5863 5863 5862 5862 5862 5862 5861 5861 5861 5862 5862 5863
5860 5860 5860 5861 5862 5863 5863 5863 5863 5864 5864 5864 5864 5864 5865 5865 5865 5865 5865 5865 5865 5865 5864 5864 5864 5863 5863 5863 5863 5862 5862 5862 5861 5861 5860 5860 5860 5859 5858 5858 5859 5859 5860
5858 5859 5859 5860 5861 5861 5862 5862 5862 5863 5863 5863 5863 5863 5863 5864 5864 5864 5864 5864 5864 5863 5863 5863 5862 5862 5862 5862 5861 5861 5860 5860 5860 5859 5859 5858 5857 5856 5854 5855 5856 5857 5857
5857 5858 5858 5859 5860 5860 5861 5861 5861 5862 5862 5862 5862 5862 5862 5862 5862 5862 5862 5862 5862 5862 5862 5861 5861 5861 5860 5860 5860 5859 5859 5858 5858 5857 5857 5857 5855 5854 5853 5853 5853 5854 5854
5856 5857 5857 5858 5858 5859 5859 5859 5860 5860 5860 5860 5861 5861 5861 5861 5861 5861 5861 5860 5860 5860 5860 5859 5859 5859 5859 5858 5858 5857 5857 5857 5856 5855 5855 5855 5854 5852 5852 5852 5852 5851 5850
5855 5855 5856 5856 5857 5857 5858 5858 5858 5859 5859 5859 5859 5859 5859 5859 5859 5859 5859 5859 5858 5858 5858 5857 5857 5857 5857 5856 5856 5855 5855 5854 5854 5853 5853 5853 5852 5851 5850 5850 5850 5849 5848
5853 5854 5854 5855 5855 5856 5856 5856 5857 5857 5857 5858 5858 5858 5858 5857 5857 5857 5857 5857 5857 5856 5856 5855 5855 5855 5854 5854 5853 5853 5852 5852 5851 5851 5851 5850 5850 5849 5849 5848 5848 5847 5846
5851 5852 5853 5853 5854 5854 5855 5855 5855 5856 5856 5856 5856 5856 5856 5856 5856 5855 5855 5855 5855 5855 5854 5853 5853 5852 5852 5851 5851 5850 5850 5849 5849 5848 5848 5848 5847 5847 5846 5846 5845 5845 5844
5848 5849 5850 5851 5852 5852 5853 5853 5854 5854 5854 5854 5854 5854 5854 5854 5854 5853 5853 5853 5853 5853 5852 5851 5850 5850 5849 5849 5848 5848 5847 5847 5846 5846 5845 5845 5844 5844 5843 5843 5842 5842 5841
5846 5847 5848 5849 5849 5850 5851 5851 5852 5852 5852 5852 5852 5852 5852 5852 5852 5851 5851 5851 5851 5850 5850 5849 5848 5847 5846 5846 5845 5845 5844 5844 5843 5843 5842 5842 5841 5841 5840 5840 5839 5838 5838
5843 5844 5845 5846 5847 5847 5848 5849 5849 5849 5850 5850 5850 5850 5850 5850 5849 5849 5849 5849 5848 5848 5847 5846 5846 5845 5844 5843 5843 5842 5841 5841 5840 5839 5839 5838 5838 5837 5836 5836 5835 5835 5834
5840 5841 5842 5842 5844 5844 5845 5846 5846 5847 5847 5848 5848 5847 5847 5847 5847 5847 5846 5846 5846 5845 5844 5844 5843 5842 5841 5840 5840 5839 5838 5838 5836 5836 5835 5834 5834 5833 5832 5832 5831 5831 5830
5836 5837 5838 5839 5840 5841 5842 5843 5844 5844 5844 5845 5845 5845 5844 5844 5844 5844 5844 5843 5843 5842 5841 5840 5840 5839 5838 5837 5836 5836 5835 5834 5833 5832 5831 5830 5829 5828 5828 5827 5827 5826 5826
5833 5834 5835 5836 5837 5838 5839 5840 5840 5841 5841 5842 5842 5842 5842 5841 5841 5841 5841 5840 5839 5839 5838 5837 5836 5835 5834 5833 5832 5831 5831 5830 5829 5828 5827 5825 5824 5823 5823 5823 5822 5822 5821
5830 5831 5832 5832 5833 5834 5835 5836 5837 5837 5838 5838 5838 5839 5839 5838 5838 5838 5837 5837 5836 5835 5834 5833 5833 5832 5831 5830 5829 5828 5826 5825 5824 5823 5822 5821 5820 5819 5818 5818 5817 5817 5816
5826 5827 5828 5829 5830 5830 5831 5832 5833 5834 5834 5835 5835 5835 5835 5835 5835 5834 5834 5833 5833 5832 5831 5830 5829 5828 5827 5826 5825 5824 5822 5821 5820 5819 5818 5817 5816 5815 5814 5813 5812 5812 5811
Wind_Speed
3 4 4 4 4 3 3 3 3 3 3 3 3 3 3 3 3 3 4 4 5 6 7 7 6 7 7 7 6 6 6 6 6 5 5 5 5 5 6 7 6 6 5
4 4 4 5 4 4 4 4 3 3 3 3 3 3 3 3 3 3 3 3 3 5 6 7 7 7 7 7 7 7 7 8 7 6 6 6 7 7 7 8 8 8 7
4 4 4 4 4 4 4 4 4 3 4 4 4 3 3 3 4 3 3 3 3 4 6 7 7 7 7 7 7 8 7 8 8 8 8 8 8 9 8 8 8 8 8
5 5 4 4 4 4 4 3 3 3 3 3 4 4 4 3 4 4 4 4 3 4 4 6 6 6 7 8 8 9 8 8 9 10 10 10 10 10 9 9 9 9 9
6 5 5 5 5 4 4 4 4 4 3 3 4 4 4 5 5 5 4 4 4 4 4 5 6 7 7 8 9 9 10 10 11 11 11 11 11 11 10 10 10 10 11
6 5 6 5 5 5 5 5 5 5 5 4 4 5 5 5 5 5 5 5 4 4 4 5 6 7 8 9 9 9 10 10 11 11 10 11 11 11 11 11 11 11 12
7 6 6 6 6 5 5 5 5 5 5 5 6 6 6 6 6 6 6 5 5 5 5 6 7 7 7 8 8 9 9 10 10 10 10 11 11 11 11 11 11 12 12
8 8 7 6 7 6 6 6 6 5 6 6 6 7 7 7 7 7 6 5 6 6 6 6 7 7 7 7 8 9 10 10 11 10 10 11 11 12 12 12 12 13 14
8 8 7 7 7 7 6 6 6 7 7 7 7 7 7 7 7 7 6 6 7 7 6 7 7 7 7 8 9 9 10 11 11 10 10 11 11 12 12 12 13 13 13
8 8 8 8 8 7 7 7 7 8 8 8 8 7 7 6 6 6 6 7 7 7 7 8 8 8 8 8 8 9 9 9 9 10 10 11 12 12 13 14 14 14 15
8 8 8 8 8 8 8 8 8 8 8 9 8 8 7 6 6 6 7 7 7 7 7 8 8 7 7 8 8 8 9 9 9 10 10 11 12 13 13 14 14 14 15
7 7 8 8 8 8 8 8 8 8 8 8 8 7 7 7 7 7 8 8 8 8 8 9 9 9 8 8 8 8 9 10 10 10 10 11 12 13 13 14 14 14 15
7 7 7 7 8 8 8 8 8 8 7 7 7 7 7 8 8 8 8 8 8 9 9 10 10 10 9 9 9 9 9 9 10 10 10 11 11 12 12 13 13 14 14
8 8 7 7 7 7 8 8 8 8 8 7 7 7 7 8 8 9 9 8 9 9 10 11 10 10 9 10 10 9 9 9 10 10 10 11 11 10 11 11 12 13 13
8 8 8 9 8 7 8 8 8 8 8 7 8 8 8 8 8 8 8 9 9 9 9 10 10 10 10 10 10 11 10 10 10 10 10 10 10 9 9 10 11 12 12
9 9 9 9 8 8 8 7 7 8 8 8 8 8 9 9 8 9 9 9 9 9 9 10 10 10 11 12 11 11 11 10 10 10 10 10 11 11 9 10 10 11 11
10 10 9 10 9 9 8 8 8 8 8 9 9 9 9 9 9 9 9 10 10 10 10 11 11 12 12 12 12 11 11 11 10 11 11 11 11 12 13 12 11 11 11
11 11 11 11 10 10 9 9 8 8 9 9 10 9 9 10 9 9 9 9 10 11 11 11 12 12 13 13 12 12 12 12 11 12 12 13 13 13 13 13 13 13 13
12 12 12 12 11 10 10 10 10 10 10 10 10 10 10 10 10 10 10 10 11 11 11 11 12 12 12 13 13 13 13 13 12 11 12 13 13 14 14 14 14 14 13
13 12 12 12 12 12 11 11 11 11 11 11 11 11 11 11 11 11 11 11 11 12 12 12 12 12 13 13 13 13 13 13 13 13 13 13 14 14 15 15 14 14 14
13 13 13 13 13 12 12 12 12 12 12 12 12 12 12 12 11 11 11 11 12 12 13 13 14 14 14 14 14 14 14 14 14 14 14 14 15 15 15 15 15 15 15
14 14 15 15 14 14 13 12 13 13 13 12 12 12 12 12 12 11 12 12 12 13 14 14 15 15 15 15 15 15 15 15 15 15 15 16 16 16 16 15 15 15 16
16 16 16 15 15 15 13 13 13 13 13 12 12 12 12 12 12 12 13 13 14 14 15 15 16 16 16 16 16 16 16 16 16 16 17 17 17 17 17 16 16 16 16
16 15 15 15 15 14 14 13 13 12 12 12 12 13 13 13 13 13 14 15 15 15 15 15 15 15 16 16 16 16 16 16 17 17 17 17 17 17 17 17 17 17 17
16 16 15 15 15 15 14 14 13 13 12 12 13 13 13 13 13 14 15 15 16 16 15 15 15 15 16 16 16 16 17 17 17 18 17 17 17 17 17 17 17 17 17
17 17 17 16 16 15 15 15 15 14 13 13 14 14 14 15 15 15 15 15 15 16 15 15 15 15 16 16 16 17 17 17 17 17 17 17 17 17 17 17 17 17 17
Wind_Direction
219 230 230 230 232 241 244 234 231 233 244 245 245 255 267 280 289 291 284 272 255 235 220 219 226 230 234 233 230 234 235 239 244 244 238 246 251 251 241 235 237 236 242
231 238 237 235 240 244 249 246 240 239 243 247 261 271 284 292 288 299 308 298 263 240 231 225 230 233 233 236 238 241 242 244 250 250 248 253 256 257 250 244 241 243 247
234 237 240 240 242 240 244 246 245 250 252 254 264 273 285 295 297 293 296 294 273 254 242 230 233 237 236 237 243 243 250 249 253 257 260 257 259 257 251 244 246 244 248
235 238 243 243 244 243 247 247 249 256 261 264 274 275 283 292 295 294 289 283 276 266 253 241 238 240 243 242 248 254 259 258 262 267 261 259 257 257 256 249 248 246 248
234 238 245 253 251 247 247 249 255 261 263 268 280 286 287 291 299 290 282 277 269 265 260 250 251 253 252 250 254 259 261 262 266 268 266 261 256 255 255 256 254 256 254
239 242 249 254 248 246 250 254 260 263 264 267 278 289 291 295 294 295 294 283 274 268 268 262 258 258 262 257 259 267 267 266 268 270 267 260 257 259 256 259 260 262 260
246 248 251 254 253 252 256 259 262 264 266 272 280 285 290 293 294 294 296 292 283 280 278 272 263 263 265 261 264 271 276 270 272 272 267 262 259 260 259 261 263 265 263
246 249 251 253 255 256 260 263 263 263 271 278 282 282 285 290 292 291 294 296 296 296 292 283 275 268 267 268 272 275 278 278 276 274 268 264 264 261 261 263 265 267 265
247 245 246 249 253 253 259 264 264 268 275 279 282 283 284 288 286 286 291 296 295 294 297 293 287 283 277 278 281 284 284 281 279 272 269 264 265 264 263 265 266 268 270
251 249 246 249 252 258 262 265 269 274 277 279 281 285 285 285 282 280 293 295 291 291 290 293 294 291 288 286 288 293 294 286 282 278 276 270 266 267 267 268 269 270 272
255 257 254 251 253 261 266 267 270 275 277 277 279 281 279 279 279 283 287 287 288 290 290 291 292 289 289 292 299 299 298 289 291 284 281 277 275 273 272 270 270 271 272
259 260 259 258 258 264 270 274 275 276 277 277 277 277 276 280 281 282 281 282 282 283 287 289 286 288 289 294 298 298 296 295 298 294 288 288 286 283 276 271 270 272 273
258 263 264 263 264 270 274 275 276 277 277 278 277 278 280 280 282 282 282 279 280 282 286 287 286 290 292 294 294 296 296 296 299 299 294 291 293 295 286 276 274 273 275
256 262 264 266 267 269 272 274 274 277 277 277 277 279 282 282 282 284 282 280 279 279 282 284 284 291 292 295 297 296 296 296 296 298 296 293 298 299 295 289 284 280 278
263 265 265 266 269 271 272 275 277 278 277 277 280 282 284 285 285 284 284 281 281 281 281 283 289 291 291 292 295 296 296 293 291 293 295 293 295 300 296 296 296 293 287
264 265 267 266 270 273 276 274 276 277 275 277 281 284 286 284 285 286 290 290 287 284 280 281 288 288 291 292 291 294 292 293 290 292 292 294 297 301 300 296 296 293 287
264 266 266 267 269 272 277 276 275 275 275 276 280 282 283 282 283 285 289 292 290 285 283 284 287 288 290 289 289 291 291 293 292 290 288 293 297 298 302 301 296 291 286
263 263 263 265 269 270 272 273 275 276 278 279 280 281 282 283 285 287 287 290 291 287 285 284 285 287 287 286 287 288 289 290 286 287 286 289 293 295 298 298 297 294 293
262 262 260 262 266 268 270 270 275 274 276 280 281 283 283 283 286 286 285 287 285 284 283 285 285 286 286 285 285 287 286 290 289 287 289 289 290 292 292 292 295 295 294
258 258 257 258 262 265 267 270 274 272 274 278 281 282 283 285 285 285 285 286 288 285 285 288 290 287 287 286 286 286 287 290 288 288 289 288 289 290 288 288 292 292 293
258 257 258 258 261 261 263 266 270 271 272 277 280 280 283 283 284 285 286 289 291 291 289 289 289 289 289 290 288 288 289 291 291 290 290 291 291 289 287 287 288 288 290
257 258 258 258 259 259 261 263 268 271 273 276 279 281 282 283 286 288 288 291 292 291 290 291 292 291 290 292 291 290 289 292 292 291 291 293 292 290 290 288 287 286 288
255 256 258 258 257 255 259 266 269 270 274 276 279 281 283 283 285 288 288 290 292 292 293 292 291 291 291 293 294 292 292 293 294 292 293 294 293 290 289 287 286 287 288
258 257 257 255 254 257 260 266 268 268 270 273 275 279 281 283 285 287 289 290 292 293 295 294 293 292 293 295 295 294 295 296 296 295 296 296 294 292 290 288 287 288 289
259 258 257 255 257 259 259 263 264 267 268 270 272 276 280 283 286 289 290 291 292 293 294 295 295 293 293 294 294 294 295 297 297 297 298 298 297 295 294 293 291 291 291
256 256 257 256 258 259 260 260 262 264 265 269 273 275 279 284 286 288 290 292 294 295 294 295 296 296 295 295 294 294 295 298 299 298 299 299 299 298 297 295 294 292 292